Terminal Aerodrome Forecast
Issued by NWS Hastings, NE

Home | Current Version | Previous Version | Text Only | Print | Product List | Glossary On
Versions: 1 2 3 4 5 6 7 8 9 10 11 12 13 14 15 16 17 18 19 20 21 22 23 24 25 26 27 28 29 30 31 32 33 34
000
FTUS43 KGID 221910 AAA
TAFGRI
TAF AMD
KGRI 221910Z 2219/2318 VRB06KT P6SM SCT040
     FM222000 08010KT P6SM SCT050
     FM230100 09010KT P6SM VCTS SCT050CB BKN100
     FM230700 12010KT P6SM BKN080 WS015/21035KT
     FM231200 VRB06KT P6SM SCT100=

USA.gov is the U.S. government's official web portal to all federal, state and local government web resources and services.